SUNNYSIDE Weather Reports


time (UTC)temp
F
wind
direction
speed
knots
gust
knots
rain 1hr
in
rain 24hr
in
rain mn
in
humidity
%
barometer
mb
20260903072030 57 108 0.0 0.0 0.00 0.00 0.00 66 983.1
20260903071526 57 44 0.0 0.0 0.00 0.00 0.00 66 983.2
20260903071027 57 44 0.0 0.0 0.00 0.00 0.00 66 983.3
20260903070529 57 44 0.0 0.0 0.00 0.00 0.00 65 983.2
20260903070028 57 44 0.0 0.0 0.00 0.00 0.00 65 983.2
20260903065524 57 44 0.0 0.0 0.00 0.00 0.00 65 983.2
20260903065023 57 44 0.0 0.0 0.00 0.00 0.00 64 983.2
20260903064523 57 44 0.0 0.0 0.00 0.00 0.00 63 983.2
20260903064022 58 44 0.0 0.0 0.00 0.00 0.00 62 983.1
20260903063522 58 44 0.0 0.0 0.00 0.00 0.00 62 983.2
20260903063020 58 44 0.0 0.0 0.00 0.00 0.00 62 983.4
20260903062521 58 44 0.0 0.0 0.00 0.00 0.00 62 983.3
20260903062021 58 44 0.0 0.0 0.00 0.00 0.00 62 983.2
20260903061521 58 44 0.0 0.0 0.00 0.00 0.00 62 983.3
20260903061018 59 44 0.0 0.0 0.00 0.00 0.00 61 983.3
20260903060517 59 44 0.0 0.0 0.00 0.00 0.00 61 983.3
20260903060020 59 44 0.0 0.0 0.00 0.00 0.00 61 983.3
20260903055518 59 44 0.0 0.0 0.00 0.00 0.00 61 983.3
20260903055015 59 44 0.0 0.0 0.00 0.00 0.00 60 983.2
20260903054516 59 44 0.0 0.0 0.00 0.00 0.00 60 983.3
20260903054015 59 44 0.0 0.0 0.00 0.00 0.00 60 983.3
20260903053515 59 44 0.0 0.0 0.00 0.00 0.00 60 983.3
20260903053013 60 44 0.0 0.0 0.00 0.00 0.00 60 983.3
20260903052513 60 44 0.0 0.0 0.00 0.00 0.00 60 983.3
20260903052013 60 44 0.0 0.0 0.00 0.00 0.00 60 983.4
20260903051512 60 44 0.0 0.0 0.00 0.00 0.00 60 983.4
20260903051011 60 44 0.0 0.0 0.00 0.00 0.00 59 983.4
20260903050511 60 44 0.0 0.0 0.00 0.00 0.00 59 983.5
20260903050030 60 44 0.0 0.0 0.00 0.00 0.00 59 983.5
20260903045509 60 44 0.0 0.0 0.00 0.00 0.00 59 983.6
20260903045008 61 44 0.0 0.0 0.00 0.00 0.00 59 983.6
20260903044508 61 44 0.0 0.0 0.00 0.00 0.00 59 983.6
20260903044008 61 44 0.0 0.0 0.00 0.00 0.00 58 983.6
20260903043508 61 44 0.0 0.0 0.00 0.00 0.00 58 983.6
20260903043108 61 44 0.0 0.0 0.00 0.00 0.00 58 983.7
20260903042508 62 44 0.0 0.0 0.00 0.00 0.00 58 983.7
20260903042008 62 44 0.0 0.0 0.00 0.00 0.00 58 983.7
20260903041515 62 44 0.0 0.0 0.00 0.00 0.00 58 983.7
20260903041007 62 44 0.0 0.0 0.00 0.00 0.00 58 983.7
20260903040507 62 44 0.0 0.0 0.00 0.00 0.00 58 983.7
20260903040009 63 38 0.0 0.0 0.00 0.00 0.00 58 983.7
20260903035508 63 38 0.0 0.0 0.00 0.00 0.00 57 983.7
20260903035006 63 37 0.0 0.0 0.00 0.00 0.00 57 983.7
20260903034508 63 37 0.0 1.7 0.00 0.00 0.00 57 983.7
20260903034007 63 37 0.0 1.7 0.00 0.00 0.00 57 983.7
20260903033505 63 36 0.0 1.7 0.00 0.00 0.00 57 983.6
20260903033006 63 28 0.0 1.7 0.00 0.00 0.00 57 983.6
20260903032509 63 28 0.0 1.7 0.00 0.00 0.00 56 983.6
20260903032006 63 28 0.0 1.7 0.00 0.00 0.00 56 983.6
20260903031506 63 28 0.0 1.7 0.00 0.00 0.00 57 983.6
20260903031005 63 32 0.0 2.6 0.00 0.00 0.00 57 983.7
20260903030508 63 32 0.0 2.6 0.00 0.00 0.00 57 983.6
20260903030004 63 39 0.0 2.6 0.00 0.00 0.00 57 983.6
20260903025504 64 34 0.0 2.6 0.00 0.00 0.00 57 983.6
20260903025005 63 34 0.0 3.5 0.00 0.00 0.00 57 983.6
20260903024508 63 35 0.9 2.6 0.00 0.00 0.00 57 983.6
20260903024009 63 38 0.0 1.7 0.00 0.00 0.00 57 983.5
20260903023506 64 32 0.0 1.7 0.00 0.00 0.00 57 983.6
20260903023006 64 355 0.0 2.6 0.00 0.00 0.00 57 983.5
20260903022505 64 36 0.0 2.6 0.00 0.00 0.00 57 983.5
20260903022004 64 42 0.0 2.6 0.00 0.00 0.00 57 983.5
20260903021508 65 42 0.0 3.5 0.00 0.00 0.00 57 983.5
20260903021007 65 43 0.9 3.5 0.00 0.00 0.00 56 983.5
20260903020503 65 33 0.0 2.6 0.00 0.00 0.00 56 983.5
20260903020009 66 40 0.0 3.5 0.00 0.00 0.00 56 983.5
20260903015503 66 46 0.9 3.5 0.00 0.00 0.00 56 983.4
20260903015003 66 49 0.9 3.5 0.00 0.00 0.00 56 983.4
20260903014502 66 32 0.9 3.5 0.00 0.00 0.00 55 983.4
20260903014003 66 55 0.9 3.5 0.00 0.00 0.00 55 983.3
20260903013504 67 44 0.0 2.6 0.00 0.00 0.00 55 983.4
20260903013002 67 25 0.0 1.7 0.00 0.00 0.00 55 983.3
20260903012503 67 25 0.0 1.7 0.00 0.00 0.00 55 983.4
20260903012002 68 24 0.0 1.7 0.00 0.00 0.00 55 983.4
20260903011502 68 24 0.0 2.6 0.00 0.00 0.00 55 983.4
20260903011001 69 24 0.0 2.6 0.00 0.00 0.00 55 983.4
20260903010502 69 24 0.0 2.6 0.00 0.00 0.00 54 983.4
20260903010002 70 24 0.0 2.6 0.00 0.00 0.00 54 983.5
20260903005502 70 16 0.9 3.5 0.00 0.00 0.00 54 983.5
20260903005001 71 21 0.9 4.3 0.00 0.00 0.00 53 983.5
20260903004502 72 5 0.9 4.3 0.00 0.00 0.00 52 983.6
20260903004003 73 19 0.0 3.5 0.00 0.00 0.00 52 983.5
20260903003501 73 17 0.0 2.6 0.00 0.00 0.00 51 983.5
20260903003001 73 12 0.0 2.6 0.00 0.00 0.00 51 983.6
20260903002502 73 11 0.0 2.6 0.00 0.00 0.00 50 983.4
20260903002003 74 19 0.0 2.6 0.00 0.00 0.00 50 983.4
20260903001610 74 19 0.9 2.6 0.00 0.00 0.00 50 983.4
20260903001103 74 355 0.0 2.6 0.00 0.00 0.00 50 983.4
20260903000601 74 21 0.9 4.3 0.00 0.00 0.00 50 983.3
20260903000109 74 32 0.9 4.3 0.00 0.00 0.00 50 983.4
20260902235600 74 11 0.9 3.5 0.00 0.00 0.00 50 983.4
20260902235059 75 39 0.9 3.5 0.00 0.00 0.00 49 983.4
20260902234559 75 13 0.9 4.3 0.00 0.00 0.00 48 983.4
20260902234059 75 82 0.9 4.3 0.00 0.00 0.00 48 983.4
20260902234003 75 83 1.7 4.3 0.00 0.00 0.00 47 983.3
20260902233559 75 11 0.0 4.3 0.00 0.00 0.00 48 983.2
20260902233103 75 360 1.7 4.3 0.00 0.00 0.00 48 983.1
20260902232559 75 17 1.7 4.3 0.00 0.00 0.00 47 983.2
20260902232101 75 25 0.9 4.3 0.00 0.00 0.00 48 983.3
20260902231600 75 13 1.7 4.3 0.00 0.00 0.00 48 983.2
20260902231059 75 32 1.7 5.2 0.00 0.00 0.00 47 983.3
20260902230558 75 56 1.7 5.2 0.00 0.00 0.00 47 983.2
20260902230058 76 37 1.7 5.2 0.00 0.00 0.00 47 983.3
20260902225558 76 42 1.7 4.3 0.00 0.00 0.00 47 983.1
20260902225102 76 28 1.7 4.3 0.00 0.00 0.00 46 983.1
20260902224557 76 48 0.9 4.3 0.00 0.00 0.00 47 983.1
20260902224056 76 309 0.0 2.6 0.00 0.00 0.00 47 983.2
20260902223556 75 360 0.0 3.5 0.00 0.00 0.00 46 983.2
20260902223056 75 306 1.7 5.2 0.00 0.00 0.00 46 983.2
20260902222556 75 277 1.7 5.2 0.00 0.00 0.00 46 983.2
20260902222056 75 238 0.0 5.2 0.00 0.00 0.00 46 983.2
20260902221611 75 255 1.7 5.2 0.00 0.00 0.00 48 983.2
20260902221054 75 253 1.7 5.2 0.00 0.00 0.00 46 983.2
20260902220554 76 221 2.6 5.2 0.00 0.00 0.00 47 983.3
20260902220101 76 254 1.7 3.5 0.00 0.00 0.00 45 983.3
20260902215553 76 289 0.0 2.6 0.00 0.00 0.00 47 983.3
20260902215055 76 300 0.0 2.6 0.00 0.00 0.00 47 983.3
20260902214553 75 300 0.0 3.5 0.00 0.00 0.00 46 983.4
20260902214052 75 360 1.7 3.5 0.00 0.00 0.00 46 983.4
20260902213552 76 281 0.0 2.6 0.00 0.00 0.00 47 983.4
20260902213055 76 18 0.0 2.6 0.00 0.00 0.00 49 983.4
20260902212550 75 18 0.0 2.6 0.00 0.00 0.00 47 983.4
20260902212049 74 18 0.0 3.5 0.00 0.00 0.00 49 983.4
20260902211557 74 69 1.7 5.2 0.00 0.00 0.00 47 983.5
20260902211053 74 42 1.7 5.2 0.00 0.00 0.00 48 983.4
20260902210547 74 360 2.6 5.2 0.00 0.00 0.00 49 983.3
20260902210047 74 63 0.9 5.2 0.00 0.00 0.00 52 983.5
20260902205546 74 276 0.9 5.2 0.00 0.00 0.00 52 983.7
20260902205045 74 344 2.6 5.2 0.00 0.00 0.00 50 983.9
20260902204605 73 55 2.6 5.2 0.00 0.00 0.00 51 983.9
20260902204043 73 28 2.6 4.3 0.00 0.00 0.00 51 983.9
20260902203544 73 44 1.7 5.2 0.00 0.00 0.00 51 983.8
20260902203046 73 39 1.7 5.2 0.00 0.00 0.00 51 983.9
20260902202547 73 46 1.7 3.5 0.00 0.00 0.00 51 983.8
20260902202043 73 90 1.7 7.8 0.00 0.00 0.00 50 983.9
20260902201545 73 11 2.6 7.8 0.00 0.00 0.00 50 983.8
20260902201042 73 5 0.9 6.1 0.00 0.00 0.00 49 983.9
20260902200542 73 302 2.6 4.3 0.00 0.00 0.00 50 983.9
20260902200042 73 343 0.0 3.5 0.00 0.00 0.00 50 983.9
20260902195546 73 350 1.7 7.0 0.00 0.00 0.00 50 984.0
20260902195041 73 348 3.5 7.8 0.00 0.00 0.00 51 984.1
20260902194554 73 62 2.6 7.8 0.00 0.00 0.00 51 984.1
20260902194041 73 98 0.9 5.2 0.00 0.00 0.00 50 984.0
20260902193541 73 42 1.7 4.3 0.00 0.00 0.00 50 984.1
20260902193044 73 341 1.7 5.2 0.00 0.00 0.00 51 984.2
20260902192540 73 355 3.5 5.2 0.00 0.00 0.00 51 984.2
20260902192040 73 335 3.5 5.2 0.00 0.00 0.00 50 984.2
20260902191550 73 61 0.9 2.6 0.00 0.00 0.00 50 984.2
20260902191043 73 61 0.9 3.5 0.00 0.00 0.00 49 984.2
20260902190539 73 74 0.9 4.3 0.00 0.00 0.00 49 984.4
20260902190038 73 46 0.9 4.3 0.00 0.00 0.00 50 984.4
20260902185538 73 55 0.0 3.5 0.00 0.00 0.00 50 984.5
20260902185038 73 49 1.7 4.3 0.00 0.00 0.00 50 984.5
20260902184540 73 16 2.6 4.3 0.00 0.00 0.00 50 984.4
20260902184036 73 28 0.9 3.5 0.00 0.00 0.00 50 984.6
20260902183536 72 88 0.0 4.3 0.00 0.00 0.00 50 984.5
20260902183043 72 88 1.7 4.3 0.00 0.00 0.00 50 984.6
20260902182538 72 67 0.9 4.3 0.00 0.00 0.00 50 984.7
20260902182035 72 80 2.6 4.3 0.00 0.00 0.00 49 984.5
20260902181535 72 69 1.7 5.2 0.00 0.00 0.00 49 984.7
20260902181034 72 65 0.9 5.2 0.00 0.00 0.00 50 984.6
20260902180534 72 65 2.6 4.3 0.00 0.00 0.00 48 984.6
20260902180034 72 360 0.9 5.2 0.00 0.00 0.00 50 984.6
20260902175533 72 341 0.9 4.3 0.00 0.00 0.00 45 984.7
20260902175032 72 20 1.7 4.3 0.00 0.00 0.00 46 984.7
20260902174534 72 49 0.0 3.5 0.00 0.00 0.00 44 984.6
20260902174032 71 21 0.9 1.7 0.00 0.00 0.00 45 984.7
20260902173531 71 18 0.0 3.5 0.00 0.00 0.00 46 984.8
20260902173044 71 248 0.9 3.5 0.00 0.00 0.00 47 984.8
20260902172530 71 254 0.0 4.3 0.00 0.00 0.00 46 984.7
20260902172030 71 246 0.9 4.3 0.00 0.00 0.00 47 984.8
20260902171530 71 245 1.7 3.5 0.00 0.00 0.00 47 984.9
20260902171029 71 296 0.0 6.1 0.00 0.00 0.00 46 984.9
20260902170533 71 284 1.7 6.1 0.00 0.00 0.00 47 985.0
20260902170029 71 286 1.7 4.3 0.00 0.00 0.00 47 984.9
20260902165527 70 360 0.0 3.5 0.00 0.00 0.00 49 984.9
20260902165026 70 248 0.9 3.5 0.00 0.00 0.00 51 985.0
20260902164526 70 249 0.9 3.5 0.00 0.00 0.00 50 985.0
20260902164025 70 273 0.0 3.5 0.00 0.00 0.00 52 984.9
20260902163524 70 243 1.7 3.5 0.00 0.00 0.00 55 984.9
20260902163023 69 246 0.0 2.6 0.00 0.00 0.00 54 984.9
20260902162522 69 246 0.9 2.6 0.00 0.00 0.00 53 984.8
20260902162021 69 275 0.0 3.5 0.00 0.00 0.00 54 984.9
20260902161521 69 275 0.9 3.5 0.00 0.00 0.00 56 985.1
20260902161019 68 273 0.0 1.7 0.00 0.00 0.00 55 984.9
20260902160518 68 273 0.0 2.6 0.00 0.00 0.00 55 984.9
20260902160017 68 273 0.9 2.6 0.00 0.00 0.00 56 985.1
20260902155521 67 360 0.0 2.6 0.00 0.00 0.00 54 985.2
20260902155016 67 360 0.0 2.6 0.00 0.00 0.00 56 985.2
20260902154523 67 360 0.0 1.7 0.00 0.00 0.00 58 985.1
20260902154016 66 360 0.0 2.6 0.00 0.00 0.00 60 985.0
20260902153512 66 360 0.0 2.6 0.00 0.00 0.00 62 985.0
20260902153011 66 331 0.0 1.7 0.00 0.00 0.00 63 985.0
20260902152510 66 338 0.0 2.6 0.00 0.00 0.00 64 985.0
20260902152009 65 338 0.0 2.6 0.00 0.00 0.00 65 985.0
20260902151507 65 336 0.0 2.6 0.00 0.00 0.00 66 985.0
20260902151005 64 340 0.9 2.6 0.00 0.00 0.00 67 985.1
20260902150503 64 238 0.0 1.7 0.00 0.00 0.00 67 985.2
20260902145503 63 238 0.0 1.7 0.00 0.00 0.00 68 985.0
20260902145001 63 238 0.0 1.7 0.00 0.00 0.00 69 985.0
20260902144606 63 238 0.0 1.7 0.00 0.00 0.00 69 985.1
20260902144101 62 238 0.0 1.7 0.00 0.00 0.00 69 985.1
20260902143557 62 238 0.0 1.7 0.00 0.00 0.00 70 985.0
20260902143058 62 238 0.0 1.7 0.00 0.00 0.00 70 985.1
20260902142556 62 233 0.0 0.9 0.00 0.00 0.00 70 985.3
20260902142055 62 233 0.0 0.9 0.00 0.00 0.00 70 985.3
20260902141556 61 233 0.0 0.9 0.00 0.00 0.00 70 985.3
20260902141053 61 233 0.0 0.0 0.00 0.00 0.00 70 985.3
20260902140554 61 233 0.0 0.0 0.00 0.00 0.00 70 985.2
20260902140051 61 233 0.0 0.9 0.00 0.00 0.00 70 985.2
20260902135549 60 233 0.0 0.9 0.00 0.00 0.00 70 985.3
20260902135049 60 233 0.0 1.7 0.00 0.00 0.00 70 985.3
20260902134550 60 233 0.9 1.7 0.00 0.00 0.00 70 985.3
20260902134046 60 233 0.9 1.7 0.00 0.00 0.00 70 985.2
20260902133546 59 233 0.0 3.5 0.00 0.00 0.00 71 985.2
20260902133047 59 233 0.9 3.5 0.00 0.00 0.00 70 985.2
20260902132549 59 233 1.7 3.5 0.00 0.00 0.00 71 985.2
20260902132043 59 233 2.6 3.5 0.00 0.00 0.00 71 985.3
20260902131602 58 233 0.9 2.6 0.00 0.00 0.00 71 985.2
20260902131042 58 233 0.9 2.6 0.00 0.00 0.00 71 985.1
20260902130540 58 233 1.7 2.6 0.00 0.00 0.00 71 985.1
20260902130051 58 233 0.9 1.7 0.00 0.00 0.00 71 985.0
20260902125538 57 233 0.0 3.5 0.00 0.00 0.00 71 985.0
20260902125038 57 233 1.7 3.5 0.00 0.00 0.00 71 985.1
20260902124537 57 233 0.0 2.6 0.00 0.00 0.00 71 985.0
20260902124036 56 233 0.9 2.6 0.00 0.00 0.00 71 984.9
20260902123536 56 233 0.9 2.6 0.00 0.00 0.00 71 984.9
20260902123036 56 233 0.0 0.9 0.00 0.00 0.00 71 984.8
20260902122536 56 233 0.0 0.0 0.00 0.00 0.00 71 984.7
20260902122036 55 233 0.0 0.0 0.00 0.00 0.00 71 984.7
20260902121537 55 233 0.0 0.9 0.00 0.00 0.00 71 984.6
20260902121034 55 233 0.0 3.5 0.00 0.00 0.00 71 984.8
20260902120534 55 233 1.7 3.5 0.00 0.00 0.00 70 984.7
20260902120034 56 233 0.0 0.0 0.00 0.00 0.00 70 984.8
20260902115537 56 233 0.0 0.0 0.00 0.00 0.00 71 984.8
20260902115035 56 233 0.0 0.0 0.00 0.00 0.00 71 984.8
20260902114535 56 233 0.0 0.0 0.00 0.00 0.00 71 984.8
20260902114036 56 233 0.0 0.0 0.00 0.00 0.00 71 984.7
20260902113534 55 233 0.0 0.0 0.00 0.00 0.00 71 984.7
20260902113033 55 233 0.0 0.0 0.00 0.00 0.00 71 984.7
20260902112534 55 233 0.0 0.0 0.00 0.00 0.00 71 984.6
20260902112036 55 233 0.0 0.0 0.00 0.00 0.00 71 984.6
20260902111534 54 233 0.0 0.0 0.00 0.00 0.00 70 984.7
20260902111032 55 233 0.0 0.0 0.00 0.00 0.00 70 984.7
20260902110531 55 233 0.0 0.0 0.00 0.00 0.00 70 984.6
20260902110042 55 233 0.0 0.0 0.00 0.00 0.00 71 984.5
20260902105530 55 233 0.0 0.0 0.00 0.00 0.00 71 984.6
20260902105030 55 233 0.0 0.0 0.00 0.00 0.00 70 984.6
20260902104537 55 233 0.0 0.0 0.00 0.00 0.00 71 984.6
20260902104029 55 233 0.0 0.0 0.00 0.00 0.00 70 984.7
20260902103528 55 233 0.0 0.0 0.00 0.00 0.00 70 984.7
20260902103034 55 233 0.0 0.0 0.00 0.00 0.00 70 984.7
20260902102528 55 233 0.0 0.0 0.00 0.00 0.00 70 984.7
20260902102028 55 233 0.0 0.0 0.00 0.00 0.00 70 984.6
20260902101528 56 233 0.0 0.0 0.00 0.00 0.00 70 984.7
20260902101027 56 233 0.0 0.0 0.00 0.00 0.00 70 984.7
20260902100530 57 233 0.0 0.0 0.00 0.00 0.00 71 984.7
20260902100027 57 233 0.0 0.0 0.00 0.00 0.00 71 984.7
20260902095528 56 233 0.0 0.0 0.00 0.00 0.00 71 984.7
20260902095026 56 233 0.0 1.7 0.00 0.00 0.00 71 984.6
20260902094526 55 233 0.0 2.6 0.00 0.00 0.00 70 984.6
20260902094033 56 233 1.7 2.6 0.00 0.00 0.00 70 984.7
20260902093526 56 233 1.7 2.6 0.00 0.00 0.00 70 984.7
20260902093035 56 233 0.0 1.7 0.00 0.00 0.00 70 984.6
20260902092525 56 233 0.0 0.9 0.00 0.00 0.00 70 984.5
20260902092024 57 233 0.0 1.7 0.00 0.00 0.00 70 984.5
20260902091527 57 233 0.9 1.7 0.00 0.00 0.00 70 984.5
20260902091024 57 233 0.9 1.7 0.00 0.00 0.00 70 984.4
20260902090523 57 233 0.9 1.7 0.00 0.00 0.00 70 984.4
20260902090023 57 233 0.9 2.6 0.00 0.00 0.00 70 984.4
20260902085523 57 233 1.7 2.6 0.00 0.00 0.00 70 984.4
20260902085023 57 233 0.9 1.7 0.00 0.00 0.00 70 984.4
20260902084525 56 233 0.9 1.7 0.00 0.00 0.00 70 984.4
20260902084023 56 233 0.0 1.7 0.00 0.00 0.00 70 984.4
20260902083522 56 233 0.0 1.7 0.00 0.00 0.00 70 984.4
20260902083033 56 233 0.9 1.7 0.00 0.00 0.00 70 984.4
20260902082522 56 233 0.9 1.7 0.00 0.00 0.00 70 984.6
20260902082021 56 233 0.0 0.0 0.00 0.00 0.00 70 984.5
20260902081526 55 233 0.0 0.0 0.00 0.00 0.00 70 984.4
20260902081020 55 233 0.0 0.9 0.00 0.00 0.00 70 984.4
20260902080520 55 233 0.0 0.9 0.00 0.00 0.00 70 984.3
20260902080026 56 233 0.0 0.0 0.00 0.00 0.00 69 984.4
20260902075517 56 233 0.0 0.0 0.00 0.00 0.00 69 984.4
20260902075019 56 233 0.0 0.0 0.00 0.00 0.00 70 984.4
20260902074517 57 233 0.0 0.0 0.00 0.00 0.00 70 984.4
20260902074018 56 233 0.0 1.7 0.00 0.00 0.00 70 984.4
20260902073517 56 233 0.0 2.6 0.00 0.00 0.00 70 984.3
20260902073028 57 233 1.7 2.6 0.00 0.00 0.00 70 984.4
20260902072516 57 233 1.7 2.6 0.00 0.00 0.00 70 984.4